sat.trackr.live / text

‹ back to catalog

STARLINK-32793

NORAD 62874 · 2025-022W

PAYLOAD ACTIVE UNKNOWN

§ Identity

Operator
Country
US
Launch date
2025-02-01
Launch site
AFWTR
Launch vehicle
Mass (kg)
RCS (m²)

Purposes: comms

External: N2YO · Heavens-Above · Gunter

§ Orbital elements

Epoch: 2026-09-21T09:23:36.540096Z

Period
93.85 min
Inclination
53.1598°
Eccentricity
0.0000837
Mean motion
15.34395971 rev/d
Perigee alt
462.1 km
Apogee alt
463.3 km
Semi-major
6,840.9 km
B*
1.6877e-4
RAAN
297.7193°
Arg perigee
70.5231°
Mean anomaly
289.5862°
Rev number
9,190

§ Raw data

STARLINK-327931 62874U 25022W   26264.39139514  .00005329  00000+0  16877-3 0  99932 62874  53.1598 297.7193 0000837  70.5231 289.5862 15.34395971 91900

JSON: /api/v1/satellites/62874 · /tle

For live sub-satellite position, see the globe view (requires WebGL).

§ Visibility from observer

Set your observer location to see the next 7 days of passes ≥ 10°. The values pass through the URL so the page stays shareable.

No JS? Fill the form by hand. The geolocation button needs JavaScript.